Location: Newark
(49.8667°N, 1.1500°E)
Time: 02:50:05
(UTC+00:00)

N. Korean satellite - Visible Passes

Search period start: 21 January 2020 00:00
Search period end: 31 January 2020 00:00
Orbit: 454 x 508 km, 97.2° (Epoch: 20 January)

Date Brightness Start Highest point End Pass type
(mag) Time Alt. Az. Time Alt. Az. Time Alt. Az.
21 Jan 6.5 05:52:11 10° NNE 05:55:43 81° ESE 05:59:17 10° S visible
21 Jan 10.0 18:07:46 10° WSW 18:08:56 11° W 18:10:06 10° WNW visible
22 Jan 7.9 05:26:48 10° NNE 05:30:10 40° E 05:33:33 10° S visible
22 Jan 8.0 07:00:51 10° NNW 07:03:19 18° WNW 07:05:49 10° WSW visible
22 Jan 9.4 17:40:31 10° SW 17:43:12 21° W 17:45:53 10° NW visible
23 Jan 9.2 05:01:45 10° NE 05:04:32 21° E 05:07:20 10° SE visible
23 Jan 7.2 06:34:48 10° N 06:37:59 32° WNW 06:41:12 10° SW visible
23 Jan 8.0 17:14:18 10° S 17:17:33 41° W 17:20:50 10° NNW visible
24 Jan 10.0 04:37:32 10° ENE 04:38:48 12° E 04:40:06 10° ESE visible
24 Jan 6.5 06:09:04 10° N 06:12:34 63° WNW 06:16:08 10° SSW visible
25 Jan 7.0 05:43:32 10° NNE 05:47:06 64° ESE 05:50:40 10° S visible
25 Jan 9.8 17:58:18 10° SW 18:00:12 14° W 18:02:06 10° WNW visible
26 Jan 8.4 05:18:15 10° NNE 05:21:31 32° E 05:24:47 10° SSE visible
26 Jan 7.8 06:51:57 10° NNW 06:54:46 22° WNW 06:57:35 10° WSW visible
26 Jan 9.0 17:31:34 10° SSW 17:34:30 26° W 17:37:27 10° NW visible
27 Jan 9.5 04:53:21 10° NE 04:55:51 18° E 04:58:21 10° SE visible
27 Jan 7.0 06:26:02 10° N 06:29:24 40° WNW 06:32:48 10° SW visible
28 Jan 6.4 06:00:22 10° N 06:03:58 79° WNW 06:07:36 10° SSW visible
29 Jan 7.5 05:34:54 10° NNE 05:38:26 51° E 05:42:00 10° S visible
29 Jan 9.7 17:49:06 10° SW 17:51:28 17° W 17:53:51 10° NW visible
30 Jan 8.8 05:09:43 10° NE 05:12:49 26° E 05:15:58 10° SSE visible
30 Jan 7.5 06:43:06 10° N 06:46:10 27° WNW 06:49:17 10° SW visible
30 Jan 8.6 17:22:39 10° SSW 17:25:46 32° W 17:28:57 10° NNW visible
